LDPE-1

导读

LDPE-1是美国于2021年12月7日发射的军事试验卫星,全称为长寿命可变轨附属载荷搭载平台,由诺斯罗普·格鲁门公司制造。它采用模块化设计,拥有6个标准对接口,可搭载多类载荷,具备较强轨道机动能力,当前运行在地球静止轨道上方的坟墓轨道,具体任务处于保密状态,被推测可能用于空间态势感知或轨道操作试验。

基本信息
目录编号:
49818
目录名称:
LDPE-1
国际标识:
2021-118B
轨道中心:
EARTH
卫星名称:
LDPE-1
卫星全名:
--
卫星状态:
在轨 (已飞行1657 天)
发射日期:
2021-12-07 UTC
国别 :
美国 (US)
星等 :
--
轨道信息
数据来源 国际轨道数据 AOE轨道数据
星历时间 2026-06-20T02:15:33+0800
1天前
查看轨道信息
2026-06-21T04:00:00+0800
7小时前
查看轨道信息
半长轴 42530.542km 42530.341km
偏心率 0.0000699 0.0000012
轨道倾角 5.691° 5.694°
近地点辐角 65.908° 152.166°
升交点赤经 63.136° 63.129°
平近点角 105.306° 41.238°
近地点 36149.432km 36152.152km
远地点 36155.378km 36152.256km
周期 1454.826分钟 1454.816分钟
每日圈数 0.989809 0.989816
详细信息
使用方式:
暂无
2D轨道图
3D轨道图
轨道高度分析图
轨道倾角分析图
轨道综合分析图
查看轨道综合分析图